Location: *
(49.5667°N, 1.3667°W)
Time: 22:16:30
(UTC+00:00)

USA 234 - Pass Details

Date: 20 September 2019
Orbit: 1103 x 1105 km, 123.0° (Epoch: 17 October)

Event Time Altitude Azimuth Distance (km) Brightness Sun altitude
Exits shadow 20:31:33 19° 64° (ENE) 2,389 4.7 -22.8°
Maximum altitude 20:36:05 47° 360° (N) 1,437 4.0 -23.5°
Drops below altitude 10° 20:42:16 10° 289° (WNW) 2,966 6.5 -24.3°
Sets 20:44:50 0° 284° (WNW) 3,924 7.3 -24.6°
